Flag for Norway Weather past 2 weeks in Kopervik, Norway

Now
55 °F

Passing clouds.


Feels Like: 51 °F
Forecast: 53 / 59 °F
Wind: 16 mph from Northwest

Location: Haugesund / Karmoy

Current Time: Aug 20, 2014 at 10:57:52 PM

Latest Report: Aug 20, 2014 at 10:20 PM


Visibility: N/A

Pressure: 29.68 "Hg

Humidity: 77%

Dew point: 48 °F

Location of KopervikLocation

Historic Weather in Kopervik — Graph

°F

Kopervik temperature yesterday

Maximum temperature yesterday: 59 °F (at 12:20 AM)
Minimum temperature yesterday: 55 °F (at 8:50 PM)
Average temperature yesterday: 57 °F

Past Weeks' High & Low Weather Summary

 TemperatureHumidityPressure
High72 °F (Aug 9, 12:20 PM)100% (Aug 7, 10:20 AM)30.01 "Hg (Aug 7, 10:20 AM)
Low48 °F (Aug 17, 11:20 PM)44% (Aug 9, 12:50 PM)29.18 "Hg (Aug 9, 8:50 PM)
Average60 °F80%29.56 "Hg
* Reported Aug 5 9:20 PM — Aug 20 9:50 PM, Kopervik, Weather by CustomWeather, © 2014

Note: Actual official high and low records may vary slightly from our data, if they occured in-between our weather recording intervals... More about our weather records

Advertising

Kopervik weather history for previous 24 hours

 ConditionsComfort  
Time TempWeatherWind HumidityBarometerVisibility
9:50 PM
Aug 20
55 °FScattered clouds.14 mph72%29.68 "HgN/A
9:20 PM55 °FScattered clouds.18 mph77%29.68 "HgN/A
8:50 PM55 °FScattered clouds.15 mph77%29.68 "HgN/A
8:20 PM55 °FScattered clouds.17 mph72%29.65 "HgN/A
7:50 PM55 °FScattered clouds.17 mph72%29.65 "HgN/A
7:20 PM57 °FScattered clouds.17 mph77%29.65 "HgN/A
6:50 PM59 °FBroken clouds.20 mph72%29.65 "HgN/A
6:20 PM57 °FBroken clouds.20 mph72%29.65 "HgN/A
5:50 PM59 °FBroken clouds.20 mph72%29.65 "HgN/A
5:20 PM59 °FBroken clouds.18 mph72%29.65 "HgN/A
4:50 PM59 °FBroken clouds.20 mph68%29.65 "HgN/A
4:20 PM57 °FScattered showers. Broken clouds.20 mph72%29.62 "HgN/A
3:50 PM57 °FBroken clouds.21 mph77%29.62 "HgN/A
3:20 PM57 °FScattered showers. Broken clouds.23 mph77%29.62 "HgN/A
2:50 PM57 °FBroken clouds.22 mph72%29.62 "HgN/A
2:20 PM59 °FBroken clouds.18 mph72%29.62 "HgN/A
1:50 PM57 °FSprinkles. Broken clouds.21 mph77%29.59 "HgN/A
1:20 PM59 °FBroken clouds.24 mph77%29.59 "HgN/A
12:50 PM57 °FPartly sunny.23 mph82%29.59 "HgN/A
12:20 PM59 °FPartly sunny.24 mph77%29.59 "HgN/A
11:50 AM59 °FPartly sunny.26 mph72%29.56 "HgN/A
11:20 AM59 °FPartly sunny.22 mph77%29.56 "HgN/A
10:50 AM57 °FBroken clouds.24 mph82%29.56 "HgN/A
10:20 AM57 °FBroken clouds.23 mph82%29.56 "HgN/A
9:50 AM57 °FDrizzle. Broken clouds.28 mph82%29.56 "HgN/A
9:20 AM57 °FDrizzle. Partly sunny.26 mph82%29.53 "HgN/A
8:50 AM57 °FBroken clouds.31 mph77%29.53 "HgN/A
8:20 AM57 °FBroken clouds.31 mph82%29.53 "HgN/A
7:50 AM55 °FPartly sunny.29 mph94%29.50 "HgN/A
7:20 AM55 °FLight rain. Broken clouds.30 mph94%29.50 "Hg2 mi
6:50 AM55 °FRain. Overcast.23 mph94%29.53 "Hg2 mi
6:20 AM54 °FLight rain. Passing clouds.20 mph94%29.53 "Hg2 mi
5:50 AM55 °FRain. Passing clouds.22 mph94%29.50 "Hg3 mi
5:20 AM54 °FRain. Partly cloudy.22 mph100%29.50 "Hg2 mi
4:50 AM55 °FPartly cloudy.22 mph88%29.53 "HgN/A
4:20 AM55 °FLight rain. Partly cloudy.24 mph88%29.53 "Hg2 mi
3:50 AM54 °FLight rain. Partly cloudy.22 mph94%29.53 "Hg1 mi
3:20 AM55 °FPartly cloudy.22 mph94%29.53 "HgN/A
2:50 AM55 °FHeavy rain. Partly cloudy.22 mph88%29.53 "Hg2 mi
2:20 AM54 °FLight rain. Partly cloudy.18 mph94%29.53 "Hg2 mi
1:50 AM54 °FLight rain. Passing clouds.21 mph94%29.53 "Hg2 mi
1:20 AM55 °FLight rain. Passing clouds.29 mph88%29.53 "Hg3 mi
12:50 AM55 °FPartly cloudy.22 mph88%29.53 "HgN/A
12:20 AM55 °FPassing clouds.26 mph88%29.53 "Hg5 mi
11:50 PM
Aug 19
57 °FMostly cloudy.23 mph82%29.50 "HgN/A
11:20 PM55 °FMostly cloudy.33 mph88%29.50 "HgN/A
10:50 PM55 °FMostly cloudy.22 mph94%29.50 "HgN/A
10:20 PM55 °FSprinkles. Partly cloudy.23 mph88%29.50 "Hg4 mi
Weather by CustomWeather, © 2014

See weather overviewHow to use our weather pages